Regional Weather Roundup
Issued by NWS Newport/Morehead, NC

Current Version | Previous Version | Graphics & Text | Print | Product List | Glossary Off
Versions: 1 2 3 4 5 6 7 8 9 10 11 12 13 14 15 16 17 18 19 20 21 22 23 24 25 26 27 28 29 30 31 32 33 34 35 36 37 38 39 40 41 42 43 44 45 46 47 48 49 50

000
ASUS42 KMHX 222322
RWRMHX
WEATHER ROUNDUP FOR EASTERN NORTH CAROLINA
NATIONAL WEATHER SERVICE NEWPORT/MOREHEAD CITY NC
700 PM EDT WED OCT 22 2014

NOTE: "FAIR" INDICATES FEW OR NO CLOUDS BELOW 12,000 FEET
WITH NO SIGNIFICANT WEATHER AND/OR OBSTRUCTIONS TO VISIBILITY

NCZ015>017-031-032-045>047-102-103-230000-
NORTH COAST

CITY           SKY/WX    TMP DP  RH WIND       PRES   REMARKS
EDENTON        CLOUDY    58  49  74 NW12G26   29.91R
ELIZABETH CITY CLOUDY    59  49  69 NW17G26   29.88R
KITTY HAWK     CLOUDY    57  51  80 NW20G29   29.84R
MANTEO         CLOUDY    57  50  77 NW17G25   29.86R

$$

NCZ045>047-081-094-103-104-230000-
CENTRAL COAST

CITY           SKY/WX    TMP DP  RH WIND       PRES   REMARKS
FRISCO         CLOUDY    58  52  80 NW15G29   29.87R
SWANQUARTER      N/A     57 N/A N/A NW10G17   29.85S

$$

NCZ095-097-098-100-101-230000-
SOUTHERN COAST

CITY           SKY/WX    TMP DP  RH WIND       PRES   REMARKS
BEAUFORT       MOCLDY    59  49  69 NW10      29.93R
CEDAR ISLAND     N/A     61 N/A N/A NW28G36   29.94S
JACKSONVILLE   PTCLDY    57  50  77 SW3       29.94R
PINEY ISLAND   MOCLDY    62  48  60 NW18G26   29.91R
WILMINGTON     CLEAR     61  46  57 W7        29.96R


$$

NCZ011>013-027>030-043-044-078>080-089-090>093-098-230000-
COASTAL PLAIN

CITY           SKY/WX    TMP DP  RH WIND       PRES   REMARKS
AHOSKIE        CLOUDY    56  46  70 N7        29.94R
CLINTON        CLEAR     61  46  57 NW3       29.97S
ELIZABETHTOWN  MOCLDY    61  46  59 NW6       29.98R
GOLDSBORO      MOCLDY    62  47  57 NW5       29.94R
GREENVILLE     PTCLDY    57  50  77 N3        29.96R
HAVELOCK       MOCLDY    59  48  67 NW6       29.94R
KENANSVILLE    CLEAR     58  43  56 NW5       29.97R
KINSTON        MOCLDY    61  48  63 CALM      29.95R
NEW BERN       CLOUDY    60  49  66 NW5       29.94R
RICHLANDS      PTCLDY    55  45  67 W3        29.96R
ROCKY MOUNT    CLOUDY    60  46  59 NW5       29.95R
WASHINGTON     PTCLDY    56  49  74 NW3       29.94R
WHITEVILLE     CLEAR     57  48  70 CALM      29.98R

$$

AMZ130-135-150-152-154-156-158-170-250-252-270-ANZ085-086-088-633-658-670-230000-
MARINE OBSERVATIONS

STATION/POSITION TIME  TEMP    WIND        PRES    WAVE   SWELL
                       AIR SEA DIR/SP/G            HT/PER HT/PER
                 (UTC) (F)     (DEG/KT/KT) (MB)    (FT/S) (FT/S)
CHESAPEAKE LIGHT 2300   57     330/ 33/ 36 1009.7
64 E VA BEACH    2300   62 69  320/ 29/ 35 1005.7    6/ 6   2/ 9
DUCK             2300   57 69  300/ 19/ 26 1009.7
2 E DUCK         2300                        N/A     4/ 6
10 NE DUCK       2300      70                N/A     6/ 6
OREGON INLET     2300   58 65  310/ 20/ 27 1010.2
13E OREGON INLT  2300      73                N/A     6/ 6
HATTERAS CG      2300   60 67  310/ 27/ 33 1011.7
DIAMOND BUOY     2300   61     310/ 27/ 33 1010.4    6/ 5   2/ 9
17 S OCRACOKE    NOT AVBL
CAPE LOOKOUT     2300   61     330/ 10/ 12 1013.3
BEAUFORT LAB     2300   60 69  320/  5/  8 1012.7
30 SE NEW RIVER  2300   65 76  330/ 17/ 21 1013.1    5/ 5   2/10
5 SE WRIGHTSVLE  2300   63 73  320/ 12/ 16   N/A
225 S CAPE HAT   2200   70 78  310/ 16/ 21 1012.8    6/ 7   2/ 9
41 SE CHARLESTON 2300   67 78  320/ 12/ 17 1015.4    3/ 5   2/ 6

$$



USA.gov is the U.S. government's official web portal to all federal, state and local government web resources and services.